Weather History for 76001 - July, 2013

Change the Weather History Date:

Friday, July 5, 2013

  Actual Average Record
Temperature  
Mean Temperature 68 °F -  
Max Temperature 75 °F 78 °F - ()
Min Temperature 62 °F 60 °F - ()
Cooling Degree Days 4    
Growing Degree Days 18 (Base 50)    
Moisture  
Dew Point 57 °F    
Average Humidity 69    
Maximum Humidity 82    
Minimum Humidity 53    
Precipitation  
Precipitation 0.00 in - - ()
Sea Level Pressure  
Sea Level Pressure 29.85 in    
Wind  
Wind Speed 4 mph ()    
Max Wind Speed 15 mph    
Max Gust Speed -    
Visibility 5.7 miles    
Events      
T = Trace of Precipitation, MM = Missing Value Source: Averaged Metar Reports

Daily Weather History Graph

Daily Weather History Graph

Search for Another Location

Airport or City:

Trip Planner

Search our weather history database for the weather conditions in past years. The results will help you decide how hot, cold, wet, or windy it might be!

Date:

Astronomy

Jul. 05, 2013 Rise Set
Actual Time 5:45 AM PDT 7:58 PM PDT
Civil Twilight 5:17 AM PDT 8:27 PM PDT
Nautical Twilight 4:43 AM PDT 9:01 PM PDT
Astronomical Twilight 4:05 AM PDT 9:39 PM PDT
Moon 3:45 AM PDT (7/5) 6:00 PM PDT (7/5)
Length of Visible Light 15h 09m
Length of Day
14h 12m
Waning Crescent, 6% of the Moon is Illuminated
Jul 5
Waning Crescent
Jul 8
New
Jul 15
First Quarter
Jul 22
Full
Jul 29
Last Quarter

Hourly Weather History & Observations

Time (PDT) Temp. Dew Point Humidity Pressure Visibility Wind Dir Wind Speed Gust Speed Precip Events Conditions
12:40 AM 64.4 °F 57.2 °F 77% 29.86 in 4.0 mi Calm Calm - N/A   Overcast
1:42 AM 64.4 °F 57.2 °F 77% 29.87 in 4.0 mi Calm Calm - N/A   Overcast
2:40 AM 64.4 °F 57.2 °F 77% 29.82 in 4.0 mi Calm Calm - N/A   Overcast
3:40 AM 62.6 °F 57.2 °F 82% 29.82 in 5.0 mi Calm Calm - N/A   Overcast
4:44 AM 64.4 °F 57.2 °F 77% 29.86 in 5.0 mi NNW 4.6 mph - N/A   Overcast
5:51 AM 64.4 °F 57.2 °F 77% 29.84 in 5.0 mi North 4.6 mph - N/A   Overcast
6:44 AM 64.4 °F 57.2 °F 77% 29.84 in 6.0 mi Calm Calm - N/A   Overcast
7:52 AM 66.2 °F 57.2 °F 73% 29.88 in 6.0 mi WNW 4.6 mph - N/A   Mostly Cloudy
8:51 AM 68.0 °F 57.2 °F 68% 29.87 in 6.0 mi SSW 4.6 mph - N/A   Mostly Cloudy
9:40 AM 68.0 °F 57.2 °F 68% 29.87 in 5.0 mi WSW 6.9 mph - N/A   Mostly Cloudy
10:45 AM 69.8 °F 57.2 °F 64% 29.87 in 6.0 mi WNW 5.8 mph - N/A   Mostly Cloudy
11:51 AM 73.4 °F 57.2 °F 57% 29.88 in 5.0 mi SSE 4.6 mph - N/A   Mostly Cloudy
12:46 PM 75.2 °F 57.2 °F 53% 29.87 in 7.0 mi NW 10.4 mph - N/A   Scattered Clouds
1:42 PM 75.2 °F 57.2 °F 53% 29.86 in 7.0 mi West 11.5 mph - N/A   Scattered Clouds
2:49 PM 75.2 °F 57.2 °F 53% 29.84 in 7.0 mi WNW 15.0 mph - N/A   Scattered Clouds
3:49 PM 75.2 °F 57.2 °F 53% 29.83 in 7.0 mi NW 13.8 mph - N/A   Scattered Clouds
4:44 PM 73.4 °F 57.2 °F 57% 29.86 in 7.0 mi WNW 12.7 mph - N/A   Partly Cloudy
5:49 PM 71.6 °F 57.2 °F 60% 29.83 in 7.0 mi West 10.4 mph - N/A   Clear
6:50 PM 68.0 °F 57.2 °F 68% 29.83 in 7.0 mi WNW 9.2 mph - N/A   Clear
7:47 PM 66.2 °F 57.2 °F 73% 29.86 in 6.0 mi WNW 9.2 mph - N/A   Partly Cloudy
8:44 PM 64.4 °F 57.2 °F 77% 29.84 in 6.0 mi WNW 8.1 mph - N/A   Clear
9:43 PM 64.4 °F 57.2 °F 77% 29.85 in 6.0 mi WNW 8.1 mph - N/A   Mostly Cloudy
10:46 PM 64.4 °F 57.2 °F 77% 29.87 in 5.0 mi Calm Calm - N/A   Overcast
11:45 PM 64.4 °F 57.2 °F 77% 29.86 in 5.0 mi NW 5.8 mph - N/A   Overcast